Probability
52 45 42 35 42 39 29 32 26 16 13 29 23 23 23 23 13 19 19 13 3 0 0 0 0 0 0 0 3 3 3 3 3 3 3 10 10 10
52 48 48 35 35 29 29 29 32 29 29 23 26 26 23 16 16 23 23 13 6 0 0 0 0 0 0 0 0 0 0 0 3 3 3 3 3 3
35 39 45 39 32 29 29 29 26 23 19 19 23 29 23 19 16 19 16 19 13 3 0 0 0 0 0 0 0 0 0 0 0 0 0 0 0 0
32 32 29 29 39 29 26 23 23 23 23 23 23 23 29 29 26 23 16 13 16 0 0 0 0 0 0 0 0 0 0 0 0 0 0 0 0 0
35 35 32 29 32 19 35 29 26 23 29 23 16 26 26 19 23 16 13 23 13 3 0 0 0 0 0 0 0 0 0 0 0 0 0 0 0 0
39 39 35 32 29 29 26 26 23 26 26 23 23 19 26 23 19 13 13 16 13 10 6 3 0 0 0 0 0 0 0 0 0 0 0 0 0 0
42 39 32 26 26 26 23 29 26 26 26 26 26 26 23 23 19 19 13 10 13 10 13 10 10 13 6 0 0 0 0 0 0 0 0 0 0 0
35 32 32 32 16 3 6 10 19 23 26 26 29 29 29 26 26 23 13 13 16 10 13 13 6 10 10 10 3 0 0 0 0 0 0 0 0 0
39 35 26 23 26 29 10 0 0 0 3 26 26 29 29 29 29 29 32 23 19 19 16 10 10 13 10 3 0 0 0 0 0 0 0 0 0 0
39 35 32 32 26 35 35 26 26 26 19 13 23 32 29 32 35 32 32 29 26 26 13 10 10 13 10 6 0 0 0 0 0 0 0 0 0 0
26 32 32 32 29 6 32 35 35 35 16 6 13 16 10 13 16 23 29 19 19 16 16 13 13 16 13 6 3 0 0 0 0 0 0 0 0 0
32 29 19 19 19 3 26 29 32 32 32 19 16 10 13 13 3 19 29 29 16 13 16 13 13 19 13 10 6 6 3 0 0 0 0 0 0 0
23 26 26 6 0 0 0 26 26 26 29 29 29 29 26 29 26 26 32 26 23 13 16 16 13 19 13 10 3 6 6 6 0 0 0 0 0 0
26 19 23 3 0 0 0 6 3 3 16 23 26 19 19 19 23 26 29 29 32 19 19 19 19 23 19 10 6 10 6 6 6 6 0 0 0 0
23 13 3 0 0 0 0 0 0 6 16 16 23 23 23 23 23 26 26 23 19 19 13 13 13 16 16 13 10 6 10 10 10 10 10 3 0 0
3 10 0 0 0 0 0 0 0 10 13 16 16 19 19 23 19 16 13 13 16 13 13 13 13 13 13 13 10 10 6 6 6 6 10 10 6 3
10 16 16 16 13 13 16 16 16 13 13 19 16 16 26 23 19 19 23 13 13 10 13 13 13 16 13 13 10 10 6 6 6 6 10 6 6 3
3 13 16 19 16 16 16 19 16 16 13 16 16 13 13 16 13 19 13 16 13 13 13 13 13 13 10 6 10 10 10 10 6 6 6 6 6 6
0 13 13 19 16 13 16 16 19 19 19 13 16 16 16 13 13 13 13 16 13 10 13 13 13 10 10 10 10 0 6 10 6 6 6 6 6 3
10 13 13 16 16 19 19 16 19 19 19 19 13 13 13 13 16 13 13 10 10 10 10 13 13 13 10 6 6 3 0 6 6 3 3 3 3 0
6 10 13 16 16 19 19 16 19 19 19 19 19 19 13 13 13 16 13 10 10 10 13 10 10 3 6 6 6 10 3 0 0 3 3 3 0 0
10 10 10 13 13 23 23 16 16 19 19 16 16 16 13 10 10 6 13 10 10 10 10 10 10 13 10 10 6 6 3 3 0 0 0 0 0 0
10 10 10 13 16 13 16 19 13 19 16 16 16 13 10 10 6 10 6 6 6 10 10 6 10 6 6 6 6 3 0 3 0 0 0 0 0 0
Height
5880 5879 5878 5877 5877 5876 5875 5874 5873 5872 5871 5870 5868 5868 5867 5865 5864 5862 5861 5860 5858 5857 5855 5854 5852 5851 5849 5848 5846 5845 5843 5842 5840 5838 5836 5834 5833 5831
5877 5876 5876 5875 5874 5873 5872 5871 5870 5869 5868 5867 5866 5865 5864 5863 5861 5860 5858 5856 5855 5854 5852 5850 5848 5847 5845 5844 5842 5840 5838 5837 5835 5833 5831 5829 5827 5825
5874 5874 5873 5872 5871 5870 5869 5868 5867 5866 5865 5864 5863 5862 5861 5859 5858 5856 5854 5853 5851 5850 5848 5846 5845 5843 5841 5839 5837 5835 5833 5831 5829 5827 5825 5823 5821 5819
5871 5871 5870 5869 5868 5867 5866 5865 5864 5862 5861 5860 5859 5858 5857 5856 5854 5852 5851 5849 5847 5845 5843 5842 5840 5838 5836 5834 5832 5830 5828 5826 5824 5821 5819 5817 5814 5812
5869 5868 5867 5866 5865 5863 5862 5861 5860 5859 5858 5857 5856 5854 5853 5852 5850 5848 5846 5844 5843 5841 5838 5837 5835 5833 5831 5829 5827 5824 5822 5820 5818 5816 5813 5810 5808 5805
5865 5864 5863 5862 5861 5860 5858 5857 5856 5855 5854 5853 5851 5850 5849 5847 5845 5844 5842 5840 5838 5835 5833 5831 5829 5827 5825 5823 5821 5819 5816 5814 5811 5809 5807 5804 5801 5799
5862 5861 5859 5858 5857 5856 5854 5853 5852 5851 5849 5848 5846 5845 5844 5842 5841 5839 5837 5835 5832 5830 5828 5825 5823 5821 5819 5817 5815 5812 5810 5808 5805 5802 5800 5797 5794 5792
5858 5857 5856 5854 5853 5852 5850 5848 5847 5846 5845 5844 5842 5841 5839 5838 5836 5834 5832 5830 5827 5825 5822 5820 5817 5815 5813 5810 5808 5806 5803 5801 5798 5795 5793 5790 5787 5785
5854 5853 5851 5850 5848 5847 5845 5843 5842 5840 5839 5838 5837 5836 5834 5832 5831 5829 5826 5824 5822 5819 5816 5813 5811 5808 5806 5803 5801 5799 5796 5794 5791 5789 5786 5783 5780 5778
5850 5848 5847 5845 5843 5841 5839 5838 5836 5835 5833 5832 5831 5830 5828 5827 5825 5823 5820 5818 5816 5813 5810 5808 5805 5802 5799 5797 5794 5792 5789 5787 5784 5781 5779 5776 5773 5770
5845 5843 5842 5840 5838 5836 5834 5832 5830 5829 5827 5826 5825 5823 5822 5820 5818 5817 5814 5812 5810 5807 5804 5801 5798 5796 5793 5790 5788 5785 5782 5779 5777 5774 5771 5768 5765 5763
5839 5838 5836 5835 5833 5830 5829 5827 5825 5823 5821 5820 5818 5817 5815 5813 5811 5810 5808 5805 5803 5801 5798 5796 5793 5790 5787 5784 5781 5778 5775 5772 5769 5766 5764 5761 5758 5755
5833 5832 5831 5829 5827 5824 5823 5821 5819 5817 5815 5814 5812 5810 5808 5806 5804 5803 5800 5798 5796 5794 5792 5789 5786 5783 5780 5777 5774 5770 5767 5764 5762 5759 5756 5753 5750 5748
5827 5826 5824 5823 5821 5818 5816 5815 5813 5811 5809 5807 5805 5803 5801 5799 5797 5795 5793 5791 5789 5787 5784 5782 5779 5776 5773 5770 5767 5763 5760 5757 5754 5751 5748 5746 5743 5740
5820 5819 5817 5816 5814 5812 5810 5808 5806 5804 5802 5800 5798 5796 5794 5792 5790 5787 5785 5783 5781 5779 5777 5774 5772 5769 5766 5763 5760 5757 5753 5750 5747 5744 5741 5738 5736 5733
5812 5811 5810 5808 5806 5804 5803 5801 5799 5797 5795 5792 5790 5788 5786 5784 5782 5779 5777 5775 5773 5771 5769 5766 5764 5761 5759 5756 5753 5749 5746 5743 5740 5736 5734 5731 5728 5726
5803 5802 5801 5799 5797 5796 5794 5792 5790 5788 5786 5784 5782 5780 5778 5776 5774 5771 5769 5766 5764 5762 5760 5758 5756 5753 5751 5748 5745 5742 5739 5736 5732 5729 5726 5723 5721 5718
5794 5793 5792 5790 5789 5787 5785 5783 5782 5780 5778 5775 5773 5771 5769 5767 5765 5763 5760 5758 5756 5754 5751 5749 5747 5745 5743 5740 5738 5734 5731 5729 5725 5722 5719 5716 5714 5711
5784 5783 5782 5781 5780 5778 5776 5774 5773 5771 5769 5767 5765 5763 5761 5758 5756 5754 5752 5749 5747 5745 5743 5740 5738 5736 5734 5732 5729 5727 5724 5721 5718 5715 5712 5709 5706 5704
5774 5773 5772 5771 5770 5768 5767 5765 5763 5761 5760 5758 5756 5753 5751 5749 5747 5745 5742 5740 5738 5736 5734 5732 5729 5727 5725 5723 5721 5718 5715 5713 5710 5707 5704 5702 5699 5696
5763 5762 5761 5761 5759 5758 5757 5755 5754 5752 5750 5748 5746 5744 5742 5739 5737 5735 5733 5731 5728 5726 5724 5723 5720 5718 5716 5714 5712 5709 5707 5704 5702 5699 5696 5694 5691 5688
5753 5752 5751 5750 5749 5748 5746 5745 5743 5742 5740 5738 5736 5734 5731 5729 5727 5725 5723 5721 5719 5717 5715 5713 5710 5709 5706 5704 5702 5700 5698 5696 5693 5690 5688 5686 5683 5680
5742 5741 5740 5739 5738 5736 5735 5734 5732 5731 5729 5727 5725 5723 5721 5718 5717 5715 5713 5711 5709 5707 5704 5702 5700 5698 5696 5694 5692 5690 5688 5686 5684 5681 5679 5677 5675 5672
Wind_Speed
9 9 9 10 10 10 10 11 10 10 10 10 10 10 11 12 12 13 12 13 13 14 14 14 15 15 16 16 17 17 18 18 19 19 20 20 21 21
9 10 10 11 11 12 12 12 12 11 11 11 12 11 12 13 13 13 13 14 14 15 15 15 16 16 17 18 19 19 19 20 20 20 21 21 21 21
10 10 11 11 12 12 13 13 13 13 13 12 12 12 13 14 14 15 15 15 16 16 16 16 17 17 18 19 19 19 20 20 21 21 22 22 22 23
11 11 11 12 12 13 13 14 14 14 14 13 13 14 14 15 15 16 16 17 17 17 18 18 19 19 19 20 20 20 21 21 22 22 23 23 24 24
12 12 12 13 13 14 14 14 14 14 14 14 15 16 15 16 16 17 18 18 18 18 19 19 20 20 21 21 21 22 22 23 24 24 24 24 24 24
12 13 13 14 14 14 14 15 15 15 15 15 16 17 16 17 17 17 18 19 19 20 20 20 20 21 21 22 22 22 23 23 24 24 25 25 24 24
13 14 14 14 15 15 15 16 16 17 17 17 17 18 18 18 18 18 19 20 20 21 21 21 21 22 22 22 22 23 23 24 24 24 25 25 25 25
14 15 15 15 16 16 17 17 17 18 18 18 19 19 19 19 19 19 20 20 21 22 22 22 22 23 23 23 24 24 24 24 25 25 26 26 26 26
16 16 16 16 17 18 19 19 18 18 19 19 19 20 20 20 20 20 21 22 23 23 23 24 24 25 24 24 25 25 25 25 26 26 27 27 27 26
17 18 18 18 18 19 19 20 20 19 18 19 20 22 22 22 22 22 22 22 23 23 24 24 25 25 25 25 25 25 25 26 27 27 27 27 27 26
19 19 19 18 18 18 19 19 19 19 19 20 21 22 23 23 23 23 23 23 24 24 25 25 25 25 26 26 26 26 27 27 28 28 28 27 26 25
20 20 20 20 20 20 20 19 19 19 20 21 21 22 22 23 24 24 24 25 25 25 25 26 26 26 27 27 27 27 27 28 28 28 28 27 26 26
21 21 21 21 21 21 21 21 21 21 21 22 22 23 23 24 24 25 25 26 25 25 26 26 26 26 27 27 28 27 28 28 28 27 27 27 26 26
23 22 22 22 22 22 22 22 22 22 23 23 24 24 25 26 26 26 26 26 26 26 26 26 26 27 27 28 28 28 28 29 28 28 27 27 26 26
24 24 24 24 24 24 24 24 24 24 25 25 25 26 27 27 27 28 27 27 27 27 27 27 27 28 28 28 29 29 29 29 29 28 27 27 26 26
26 26 26 27 27 26 26 25 26 26 26 27 27 27 28 28 28 29 29 29 29 28 28 28 29 28 28 29 29 29 29 29 29 28 28 27 26 26
30 29 28 29 28 28 27 27 27 27 27 27 28 28 29 30 30 30 30 29 29 29 28 28 29 28 29 29 29 29 29 29 29 28 28 27 27 26
32 32 31 31 31 31 29 29 28 28 28 29 29 30 30 30 30 31 31 30 29 28 28 29 30 30 29 29 30 30 30 29 28 28 28 27 27 27
33 32 32 32 31 30 30 30 29 29 29 29 30 31 31 31 31 31 32 31 30 30 30 30 30 29 30 30 30 30 29 29 28 28 28 28 28 28
32 32 31 31 31 31 31 31 31 31 31 31 32 32 33 32 32 32 33 33 32 31 31 30 29 30 30 30 31 30 30 29 29 29 28 28 28 27
32 32 32 32 33 32 32 32 33 33 34 33 33 34 34 34 34 33 33 33 32 32 32 31 30 31 31 31 31 31 31 31 31 30 29 28 28 27
32 33 33 34 34 34 34 34 34 34 35 35 35 35 35 34 33 33 33 33 33 33 33 32 32 32 32 32 32 31 31 32 31 29 28 28 27 27
33 33 34 34 35 35 35 36 35 35 35 35 36 35 35 34 33 33 33 33 33 33 33 33 33 32 32 33 32 31 31 31 31 30 29 28 28 27
Wind_Direction
295 294 297 296 292 293 297 301 301 298 298 298 298 299 302 304 303 304 302 302 303 303 303 302 298 298 297 298 298 300 299 298 297 296 295 295 296 294
290 293 294 294 295 293 294 296 296 296 296 297 297 298 301 303 302 302 303 301 302 303 303 302 300 298 296 297 297 298 299 299 298 297 296 296 296 295
289 292 295 295 295 294 291 291 292 293 292 293 294 295 298 300 300 301 301 301 301 300 302 302 302 302 300 299 297 298 301 301 300 300 298 297 296 295
288 289 294 295 295 293 291 289 289 292 291 292 293 294 295 298 299 300 299 298 300 301 300 301 301 301 302 301 299 300 300 300 300 300 299 299 297 295
289 288 292 294 295 295 293 291 290 291 290 290 293 296 296 297 298 300 300 297 296 299 300 301 299 299 300 299 300 300 300 299 298 299 299 298 297 295
292 293 293 294 296 295 293 291 290 289 288 289 291 294 295 296 297 299 300 299 298 298 298 299 299 299 298 298 298 298 298 299 300 300 300 299 297 295
294 297 296 294 295 295 293 292 290 289 288 287 289 292 294 295 296 297 299 299 298 299 298 298 298 298 297 297 297 297 299 299 300 300 301 300 297 296
297 299 300 296 294 295 294 292 290 288 286 285 288 290 291 293 296 297 299 298 299 298 298 299 300 299 297 297 298 299 299 300 300 301 301 302 300 297
296 298 299 299 297 293 291 291 290 288 285 284 286 289 290 291 294 297 298 298 300 302 301 301 300 301 300 299 299 298 299 301 300 300 301 300 299 297
295 296 298 300 297 294 292 291 291 290 287 283 284 287 290 291 292 296 297 297 298 300 302 302 301 301 300 301 299 298 298 299 299 300 301 301 299 297
293 295 298 300 299 297 295 293 293 291 290 288 288 289 290 291 293 296 297 298 298 299 300 301 302 301 302 302 301 298 297 298 298 298 299 300 299 297
289 292 293 294 295 296 296 295 294 294 293 294 294 294 293 294 294 295 296 297 298 298 299 300 301 302 303 304 302 299 298 298 298 298 299 300 299 297
286 287 288 290 293 292 293 294 294 293 294 295 295 296 295 295 295 294 295 297 297 297 298 299 300 301 302 303 303 301 301 300 300 300 301 301 299 297
284 286 288 289 290 291 292 292 292 295 296 295 295 297 297 296 295 294 294 296 296 296 297 298 300 301 302 302 302 303 302 301 300 301 302 301 300 298
282 284 286 287 289 289 289 290 293 294 295 295 296 296 296 295 293 293 294 296 295 295 295 296 297 299 300 301 302 302 302 302 303 303 303 301 301 300
281 282 283 285 285 286 286 289 292 293 293 293 293 294 295 295 295 294 293 294 294 294 294 294 295 296 298 299 299 300 301 302 304 304 302 300 299 299
279 281 282 284 285 287 286 286 289 291 291 292 293 294 295 294 294 295 294 294 295 293 293 293 294 295 297 298 298 299 300 302 304 305 302 300 299 298
279 280 281 283 284 286 287 287 288 289 291 291 292 294 295 294 294 293 292 293 295 295 294 293 294 294 294 295 297 298 298 301 303 304 302 301 300 299
280 280 280 281 283 285 287 287 286 287 289 290 291 293 294 293 293 292 292 292 292 293 292 292 293 294 294 294 296 296 297 300 301 302 301 299 300 299
278 279 280 280 282 284 284 284 285 286 287 289 290 291 291 290 291 292 292 291 292 292 291 290 291 292 292 292 294 294 297 299 300 300 299 298 298 297
278 277 278 278 279 281 282 284 285 286 287 287 288 288 288 288 289 290 292 291 290 290 290 289 290 291 291 291 291 292 294 296 298 299 297 297 297 295
279 278 278 278 278 279 281 283 284 285 286 286 287 287 287 287 287 288 289 289 289 289 289 288 289 289 290 290 290 290 292 293 295 296 296 295 296 295
279 279 279 279 279 278 279 281 283 284 285 286 286 286 286 286 286 286 287 288 288 288 288 288 288 288 290 290 290 290 290 291 293 294 293 294 295 295